Weather History for Fort Indiantown Gap, PA

Change the Weather History Date:

Tuesday, February 18, 2014

  Actual Average Record
Temperature  
Mean Temperature 28 °F -  
Max Temperature 38 °F 41 °F 70 °F (2011)
Min Temperature 19 °F 26 °F 18 °F (2013)
Degree Days  
Heating Degree Days 36    
Moisture  
Dew Point 26 °F    
Average Humidity 96    
Maximum Humidity 100    
Minimum Humidity 59    
Precipitation  
Precipitation 0.05 in - - ()
Sea Level Pressure  
Sea Level Pressure 30.08 in    
Wind  
Wind Speed 4 mph (East)    
Max Wind Speed 8 mph    
Max Gust Speed -    
Visibility 7 miles    
Events Snow    
Averages and records for this station are not official NWS values.
T = Trace of Precipitation, MM = Missing Value Source: NWS Daily Summary

Daily Weather History Graph

Daily Weather History Graph

Search for Another Location

Airport:

Trip Planner

Search our weather history database for the weather conditions in past years. The results will help you decide how hot, cold, wet, or windy it might be!

Date:

Astronomy

Feb. 18, 2014 Rise Set
Actual Time 6:55 AM EST 5:45 PM EST
Civil Twilight 6:28 AM EST 6:12 PM EST
Nautical Twilight 5:56 AM EST 6:44 PM EST
Astronomical Twilight 5:24 AM EST 7:16 PM EST
Moon 9:37 PM EST (2/18) 8:26 AM EST (2/18)
Length of Visible Light 11h 44m
Length of Day
10h 49m
Waning Gibbous, 87% of the Moon is Illuminated
Feb 18
Waning Gibbous
Feb 22
Last Quarter
Mar 1
New
Mar 8
First Quarter
Mar 16
Full

Hourly Weather History & Observations

Time (EST) Temp. Windchill Dew Point Humidity Pressure Visibility Wind Dir Wind Speed Gust Speed Precip Events Conditions
12:58 AM 22.1 °F 17.4 °F 10.8 °F 62% 30.23 in 10.0 mi NE 3.5 mph - N/A   Clear
1:14 AM 23.0 °F - 10.4 °F 59% 30.21 in 10.0 mi NNE 1.2 mph - N/A Snow Light Snow
1:16 AM 23.0 °F - 10.4 °F 59% 30.21 in 10.0 mi North 1.2 mph - N/A Snow Light Snow
1:26 AM 23.0 °F - 10.4 °F 59% 30.21 in 5.0 mi Variable 1.2 mph - N/A Snow Light Snow
1:30 AM 23.0 °F 17.0 °F 14.0 °F 68% 30.21 in 2.5 mi South 4.6 mph - N/A Snow Light Snow
1:32 AM 23.0 °F 13.9 °F 15.8 °F 74% 30.21 in 2.0 mi SSE 8.1 mph - N/A Snow Light Snow
1:46 AM 21.2 °F 13.6 °F 21.2 °F 100% 30.20 in 2.0 mi SE 5.8 mph - N/A Snow Light Snow
1:48 AM 21.2 °F 13.6 °F 21.2 °F 100% 30.19 in 1.5 mi SE 5.8 mph - N/A Snow Light Snow
1:50 AM 21.2 °F 13.6 °F 21.2 °F 100% 30.19 in 1.2 mi SE 5.8 mph - N/A Snow Light Snow
1:52 AM 21.2 °F 13.6 °F 21.2 °F 100% 30.19 in 1.0 mi SE 5.8 mph - N/A Snow Light Snow
1:56 AM 21.2 °F 11.7 °F 21.2 °F 100% 30.18 in 0.8 mi ESE 8.1 mph - N/A Snow Light Snow
1:58 AM 21.9 °F 12.5 °F 21.9 °F 100% 30.21 in 0.8 mi ESE 8.1 mph - 0.00 in Snow Light Snow
2:02 AM 21.2 °F 11.7 °F 21.2 °F 100% 30.18 in 1.0 mi SE 8.1 mph - N/A Snow Light Snow
2:06 AM 21.2 °F 12.6 °F 21.2 °F 100% 30.18 in 1.2 mi ESE 6.9 mph - N/A Snow Light Snow
2:08 AM 21.2 °F 13.6 °F 21.2 °F 100% 30.18 in 1.2 mi ESE 5.8 mph - N/A Snow Light Snow
2:10 AM 21.2 °F 13.6 °F 21.2 °F 100% 30.17 in 1.5 mi SE 5.8 mph - N/A Snow Light Snow
2:14 AM 21.2 °F 13.6 °F 21.2 °F 100% 30.17 in 1.5 mi ESE 5.8 mph - N/A Snow Light Snow
2:16 AM 21.2 °F 13.6 °F 21.2 °F 100% 30.17 in 1.8 mi ESE 5.8 mph - N/A Snow Light Snow
2:18 AM 21.2 °F 13.6 °F 21.2 °F 100% 30.16 in 2.0 mi ESE 5.8 mph - N/A Snow Light Snow
2:22 AM 21.2 °F 14.9 °F 21.2 °F 100% 30.16 in 2.5 mi ESE 4.6 mph - N/A Snow Light Snow
2:26 AM 21.2 °F 13.6 °F 21.2 °F 100% 30.15 in 3.0 mi Variable 5.8 mph - N/A Snow Light Snow
2:36 AM 21.2 °F 14.9 °F 21.2 °F 100% 30.16 in 5.0 mi Variable 4.6 mph - N/A Snow Light Snow
2:44 AM 21.2 °F 16.4 °F 21.2 °F 100% 30.16 in 7.0 mi ENE 3.5 mph - N/A Snow Light Snow
2:48 AM 21.2 °F - 21.2 °F 100% 30.15 in 8.0 mi NE 2.3 mph - N/A Snow Light Snow
2:56 AM 21.2 °F - 21.2 °F 100% 30.15 in 10.0 mi North 2.3 mph - N/A Snow Light Snow
2:58 AM 21.2 °F 16.4 °F 21.2 °F 100% 30.18 in 10.0 mi NNE 3.5 mph - 0.00 in Snow Light Snow
3:00 AM 21.2 °F 16.4 °F 21.2 °F 100% 30.15 in 10.0 mi NNE 3.5 mph - N/A Snow Light Snow
3:06 AM 21.2 °F - 21.2 °F 100% 30.15 in 10.0 mi NE 2.3 mph - N/A Snow Light Snow
3:08 AM 21.2 °F - 21.2 °F 100% 30.15 in 9.0 mi Variable 1.2 mph - N/A Snow Light Snow
3:18 AM 21.2 °F 16.4 °F 21.2 °F 100% 30.15 in 2.5 mi Variable 3.5 mph - N/A Snow Light Snow
3:22 AM 21.2 °F 14.9 °F 21.2 °F 100% 30.15 in 1.8 mi Variable 4.6 mph - N/A Snow Light Snow
3:26 AM 23.0 °F 18.4 °F 23.0 °F 100% 30.15 in 1.8 mi East 3.5 mph - N/A Snow Light Snow
3:28 AM 23.0 °F 18.4 °F 23.0 °F 100% 30.15 in 2.0 mi East 3.5 mph - N/A Snow Light Snow
3:58 AM 22.8 °F 18.2 °F 22.6 °F 99% 30.16 in 2.5 mi East 3.5 mph - 0.00 in Snow Light Snow
4:02 AM 23.0 °F - 23.0 °F 100% 30.13 in 3.0 mi East 2.3 mph - N/A Snow Light Snow
4:12 AM 23.0 °F - 23.0 °F 100% 30.13 in 4.0 mi ESE 2.3 mph - N/A Snow Light Snow
4:37 AM 23.0 °F - 23.0 °F 100% 30.12 in 10.0 mi ESE 2.3 mph - N/A   Overcast
4:42 AM 23.0 °F - 23.0 °F 100% 30.12 in 10.0 mi Variable 2.3 mph - N/A Snow Light Snow
4:52 AM 23.0 °F 18.4 °F 23.0 °F 100% 30.12 in 10.0 mi ENE 3.5 mph - N/A   Overcast
4:58 AM 23.4 °F - 23.4 °F 100% 30.14 in 10.0 mi ENE 2.3 mph - 0.00 in   Overcast
5:58 AM 23.5 °F - 23.5 °F 100% 30.12 in 10.0 mi NE 2.3 mph - N/A   Overcast
6:58 AM 23.5 °F 17.6 °F 23.5 °F 100% 30.08 in 10.0 mi NE 4.6 mph - N/A   Overcast
7:58 AM 24.3 °F 18.4 °F 24.3 °F 100% 30.06 in 10.0 mi NE 4.6 mph - N/A   Overcast
8:04 AM 24.8 °F 20.5 °F 24.8 °F 100% 30.03 in 10.0 mi Variable 3.5 mph - N/A   Overcast
8:34 AM 24.8 °F 19.1 °F 24.8 °F 100% 30.02 in 10.0 mi NE 4.6 mph - N/A   Overcast
8:58 AM 25.3 °F - 25.3 °F 100% 30.04 in 10.0 mi Variable 1.2 mph - N/A   Overcast
9:05 AM 24.8 °F 19.1 °F 24.8 °F 100% 30.01 in 9.0 mi NE 4.6 mph - N/A   Overcast
9:29 AM 26.6 °F - 26.6 °F 100% 30.01 in 4.0 mi ENE 2.3 mph - N/A Snow Light Snow
9:58 AM 26.4 °F 20.9 °F 26.4 °F 100% 30.02 in 8.0 mi East 4.6 mph - 0.00 in Snow Light Snow
10:01 AM 26.6 °F 21.2 °F 26.6 °F 100% 30.00 in 8.0 mi ENE 4.6 mph - N/A   Overcast
10:10 AM 26.6 °F 22.6 °F 26.6 °F 100% 30.00 in 9.0 mi East 3.5 mph - N/A   Overcast
10:14 AM 26.6 °F 22.6 °F 26.6 °F 100% 30.00 in 10.0 mi ENE 3.5 mph - N/A   Overcast
10:48 AM 28.4 °F 24.6 °F 28.4 °F 100% 29.99 in 10.0 mi NNE 3.5 mph - N/A   Overcast
10:49 AM 28.4 °F 23.3 °F 28.4 °F 100% 29.99 in 10.0 mi NE 4.6 mph - N/A   Overcast
10:53 AM 28.4 °F 24.6 °F 28.4 °F 100% 29.99 in 10.0 mi NNE 3.5 mph - N/A   Overcast
10:58 AM 28.8 °F - 28.6 °F 99% 30.02 in 10.0 mi NNE 2.3 mph - 0.00 in   Overcast
11:00 AM 28.4 °F 24.6 °F 28.4 °F 100% 29.99 in 10.0 mi NNE 3.5 mph - N/A   Overcast
11:02 AM 30.2 °F - 28.4 °F 93% 29.99 in 10.0 mi NNE 2.3 mph - N/A   Overcast
11:06 AM 32.0 °F 28.7 °F 30.2 °F 93% 29.99 in 10.0 mi NNE 3.5 mph - N/A   Mostly Cloudy
11:10 AM 32.0 °F 28.7 °F 32.0 °F 100% 29.99 in 10.0 mi NNE 3.5 mph - N/A   Mostly Cloudy
11:12 AM 32.0 °F 28.7 °F 32.0 °F 100% 29.99 in 10.0 mi North 3.5 mph - N/A   Mostly Cloudy
11:16 AM 32.0 °F 28.7 °F 32.0 °F 100% 29.99 in 10.0 mi NNE 3.5 mph - N/A   Mostly Cloudy
11:31 AM 32.0 °F - 30.2 °F 93% 30.00 in 10.0 mi North 2.3 mph - N/A Snow Light Snow
11:39 AM 32.0 °F - 30.2 °F 93% 30.00 in 6.0 mi Variable 1.2 mph - N/A Snow Light Snow
11:57 AM 32.0 °F - 30.2 °F 93% 29.99 in 4.0 mi South 2.3 mph - N/A Snow Light Snow
11:58 AM 32.0 °F - 32.0 °F 100% 30.02 in 4.0 mi SSE 2.3 mph - 0.02 in Snow Light Snow
12:02 PM 32.0 °F - 32.0 °F 100% 29.99 in 6.0 mi SSE 2.3 mph - N/A Snow Light Snow
12:18 PM 32.0 °F - 32.0 °F 100% 29.99 in 9.0 mi North 1.2 mph - N/A Snow Light Snow
12:19 PM 32.0 °F - 32.0 °F 100% 30.00 in 10.0 mi Calm Calm - N/A   Overcast
12:26 PM 32.0 °F - 32.0 °F 100% 30.00 in 9.0 mi Calm Calm - N/A Snow Light Snow
12:55 PM 32.0 °F - 32.0 °F 100% 29.99 in 10.0 mi NE 1.2 mph - N/A   Overcast
12:58 PM 31.6 °F - 31.5 °F 99% 30.02 in 10.0 mi ENE 1.2 mph - 0.02 in   Overcast
1:18 PM 32.0 °F - 32.0 °F 100% 30.00 in 10.0 mi Calm Calm - N/A   Overcast
1:28 PM 32.0 °F 25.6 °F 32.0 °F 100% 30.00 in 10.0 mi SW 6.9 mph - N/A   Overcast
1:55 PM 32.0 °F 24.8 °F 32.0 °F 100% 30.01 in 10.0 mi SW 8.1 mph - N/A   Mostly Cloudy
1:58 PM 33.1 °F 26.1 °F 32.9 °F 99% 30.04 in 10.0 mi SW 8.1 mph - 0.01 in   Mostly Cloudy
2:02 PM 32.0 °F 24.8 °F 32.0 °F 100% 30.01 in 10.0 mi SW 8.1 mph - N/A   Mostly Cloudy
2:08 PM 32.0 °F 26.4 °F 32.0 °F 100% 30.01 in 9.0 mi SW 5.8 mph - N/A   Mostly Cloudy
2:20 PM 32.0 °F 26.4 °F 32.0 °F 100% 30.01 in 9.0 mi SW 5.8 mph - N/A   Mostly Cloudy
2:24 PM 32.0 °F 27.5 °F 32.0 °F 100% 30.01 in 10.0 mi SW 4.6 mph - N/A   Mostly Cloudy
2:32 PM 33.8 °F 29.6 °F 32.0 °F 93% 30.02 in 7.0 mi Variable 4.6 mph - N/A   Mostly Cloudy
2:39 PM 33.8 °F 27.7 °F 33.8 °F 100% 30.02 in 7.0 mi SSW 6.9 mph - N/A   Mostly Cloudy
2:40 PM 33.8 °F 27.7 °F 33.8 °F 100% 30.02 in 7.0 mi SW 6.9 mph - N/A   Scattered Clouds
2:42 PM 33.8 °F 28.6 °F 33.8 °F 100% 30.02 in 9.0 mi SW 5.8 mph - N/A   Scattered Clouds
2:58 PM 34.9 °F 29.0 °F 34.7 °F 99% 30.05 in 10.0 mi SW 6.9 mph - 0.00 in   Mostly Cloudy
3:12 PM 35.6 °F 29.2 °F 35.6 °F 100% 30.02 in 7.0 mi SSW 8.1 mph - N/A   Overcast
3:19 PM 35.6 °F 29.2 °F 33.8 °F 93% 30.03 in 9.0 mi SW 8.1 mph - N/A   Overcast
3:23 PM 35.6 °F 29.9 °F 33.8 °F 93% 30.03 in 9.0 mi SW 6.9 mph - N/A   Light Drizzle
3:58 PM 36.1 °F 29.9 °F 34.2 °F 93% 30.06 in 10.0 mi WSW 8.1 mph - 0.00 in   Overcast
4:58 PM 38.8 °F 33.2 °F 28.9 °F 68% 30.06 in 10.0 mi WSW 8.1 mph - 0.00 in   Clear
5:58 PM 38.5 °F 34.1 °F 28.2 °F 67% 30.08 in 10.0 mi Variable 5.8 mph - N/A   Clear
6:58 PM 33.8 °F 28.6 °F 28.0 °F 79% 30.11 in 10.0 mi NW 5.8 mph - N/A   Clear
7:58 PM 28.9 °F - 28.4 °F 98% 30.09 in 10.0 mi North 2.3 mph - N/A   Clear
8:58 PM 26.2 °F - 26.1 °F 99% 30.10 in 10.0 mi NW 2.3 mph - N/A   Clear
9:58 PM 21.9 °F 17.2 °F 21.9 °F 100% 30.10 in 9.0 mi North 3.5 mph - N/A   Clear
10:58 PM 19.6 °F - 19.6 °F 100% 30.09 in 8.0 mi Calm Calm - N/A   Clear
11:58 PM 20.1 °F - 20.1 °F 100% 30.08 in 5.0 mi NNE 2.3 mph - N/A   Clear